KHY2658 RPLC-RPNS

Flight info

Callsign KHY2658
Flight time N/A
Altitude 21000
Route OLIVA2E OLIVA W16 MIA B462 MASBA W9A EVLIN
Aircraft SF34/M-SDFGR/S

Departure

Time N/A
Airport Clark International Airport / Clark Air Base (RPLC)

Arrival

Time 2026-04-26 03:48
Airport Siargao Airport (RPNS)
Time Latitude Longitude Altitude Speed Heading
2026-04-26 03:16 10.68488 124.55222 20915 ft 288 kts 153°
2026-04-26 03:17 10.66719 124.56183 20915 ft 288 kts 153°
2026-04-26 03:17 10.64946 124.57145 20915 ft 288 kts 153°
2026-04-26 03:17 10.63189 124.58099 20915 ft 288 kts 153°
2026-04-26 03:17 10.61426 124.59056 20915 ft 288 kts 153°
2026-04-26 03:18 10.59655 124.60017 20915 ft 288 kts 153°
2026-04-26 03:18 10.57888 124.60976 20915 ft 288 kts 153°
2026-04-26 03:18 10.56125 124.61933 20915 ft 288 kts 153°
2026-04-26 03:18 10.54381 124.62879 20915 ft 288 kts 153°
2026-04-26 03:19 10.52603 124.63844 20915 ft 288 kts 153°
2026-04-26 03:19 10.50849 124.64795 20915 ft 288 kts 153°
2026-04-26 03:19 10.49093 124.65748 20913 ft 288 kts 153°
2026-04-26 03:19 10.47316 124.66711 20913 ft 288 kts 153°
2026-04-26 03:20 10.45563 124.67661 20913 ft 288 kts 153°
2026-04-26 03:20 10.43804 124.68614 20913 ft 288 kts 153°
2026-04-26 03:20 10.42039 124.69571 20913 ft 288 kts 153°
2026-04-26 03:20 10.40268 124.70531 20913 ft 288 kts 153°
2026-04-26 03:21 10.38514 124.71482 20913 ft 288 kts 153°
2026-04-26 03:21 10.36758 124.72433 20913 ft 288 kts 153°
2026-04-26 03:21 10.34978 124.73398 20913 ft 288 kts 153°
2026-04-26 03:21 10.33236 124.74341 20913 ft 288 kts 153°
2026-04-26 03:22 10.31465 124.75301 20913 ft 288 kts 153°
2026-04-26 03:22 10.29715 124.76248 20913 ft 288 kts 153°
2026-04-26 03:22 10.27939 124.77209 20913 ft 288 kts 153°
2026-04-26 03:22 10.26186 124.78159 20913 ft 288 kts 153°
2026-04-26 03:23 10.24423 124.79113 20913 ft 288 kts 153°
2026-04-26 03:23 10.22666 124.80064 20913 ft 288 kts 153°
2026-04-26 03:23 10.20889 124.81026 20913 ft 288 kts 153°
2026-04-26 03:23 10.19149 124.81967 20913 ft 288 kts 153°
2026-04-26 03:24 10.17380 124.82925 20913 ft 288 kts 153°
2026-04-26 03:24 10.15626 124.83873 20913 ft 288 kts 154°
2026-04-26 03:24 10.13864 124.84826 20913 ft 288 kts 154°
2026-04-26 03:24 10.12082 124.85789 20913 ft 288 kts 154°
2026-04-26 03:25 10.10320 124.86742 20913 ft 288 kts 154°
2026-04-26 03:25 10.08563 124.87691 20913 ft 288 kts 154°
2026-04-26 03:25 10.06808 124.88641 20913 ft 288 kts 154°
2026-04-26 03:25 10.05031 124.89601 20913 ft 288 kts 154°
2026-04-26 03:26 10.03281 124.90546 20913 ft 288 kts 154°
2026-04-26 03:26 10.01511 124.91504 20913 ft 288 kts 154°
2026-04-26 03:26 9.99738 124.92462 20913 ft 288 kts 154°
2026-04-26 03:26 9.97972 124.93416 20913 ft 288 kts 154°
2026-04-26 03:27 9.96220 124.94362 20913 ft 288 kts 154°
2026-04-26 03:27 9.94448 124.95320 20913 ft 288 kts 154°
2026-04-26 03:27 9.92700 124.96264 20913 ft 288 kts 154°
2026-04-26 03:27 9.90916 124.97227 20913 ft 288 kts 154°
2026-04-26 03:28 9.89150 124.98181 20914 ft 288 kts 154°
2026-04-26 03:28 9.87384 124.99135 20914 ft 289 kts 154°
2026-04-26 03:28 9.85605 125.00095 20765 ft 294 kts 154°
2026-04-26 03:28 9.83783 125.01077 20518 ft 296 kts 154°
2026-04-26 03:29 9.81985 125.02047 20262 ft 291 kts 154°
2026-04-26 03:29 9.80200 125.03011 20006 ft 288 kts 154°
2026-04-26 03:29 9.78550 125.04133 19705 ft 291 kts 135°
2026-04-26 03:29 9.77514 125.05868 19457 ft 292 kts 112°
2026-04-26 03:30 9.76997 125.07841 19198 ft 292 kts 102°
2026-04-26 03:30 9.76702 125.09882 18925 ft 292 kts 97°
2026-04-26 03:30 9.76486 125.11932 18651 ft 292 kts 96°
2026-04-26 03:30 9.76296 125.13969 18363 ft 289 kts 96°
2026-04-26 03:31 9.76118 125.15962 17858 ft 284 kts 95°
2026-04-26 03:31 9.75948 125.17923 17355 ft 279 kts 95°
2026-04-26 03:31 9.75779 125.19868 16854 ft 274 kts 95°
2026-04-26 03:31 9.75615 125.21769 16409 ft 273 kts 95°
2026-04-26 03:32 9.75448 125.23683 15960 ft 272 kts 95°
2026-04-26 03:32 9.75282 125.25600 15510 ft 271 kts 95°
2026-04-26 03:32 9.75118 125.27482 15068 ft 271 kts 95°
2026-04-26 03:32 9.74953 125.29383 14619 ft 270 kts 94°
2026-04-26 03:33 9.74789 125.31274 14173 ft 270 kts 94°
2026-04-26 03:33 9.74625 125.33154 13728 ft 269 kts 94°
2026-04-26 03:33 9.74462 125.35033 13283 ft 269 kts 94°
2026-04-26 03:33 9.74298 125.36911 12835 ft 267 kts 94°
2026-04-26 03:34 9.74135 125.38776 12388 ft 266 kts 94°
2026-04-26 03:34 9.74025 125.40040 12084 ft 265 kts 94°
2026-04-26 03:34 9.73972 125.40651 11952 ft 264 kts 94°
2026-04-26 03:35 9.73079 125.50866 9983 ft 247 kts 92°
2026-04-26 03:36 9.72929 125.52584 9734 ft 245 kts 92°
2026-04-26 03:36 9.72779 125.54308 9489 ft 247 kts 92°
2026-04-26 03:36 9.72628 125.56021 9247 ft 247 kts 92°
2026-04-26 03:36 9.72475 125.57763 8999 ft 247 kts 92°
2026-04-26 03:37 9.72322 125.59496 8750 ft 246 kts 92°
2026-04-26 03:37 9.72171 125.61227 8497 ft 245 kts 92°
2026-04-26 03:37 9.72021 125.62919 8256 ft 243 kts 92°
2026-04-26 03:37 9.71872 125.64629 7994 ft 242 kts 92°
2026-04-26 03:38 9.71721 125.66333 7697 ft 242 kts 92°
2026-04-26 03:38 9.71573 125.68027 7394 ft 242 kts 92°
2026-04-26 03:38 9.71424 125.69707 7099 ft 242 kts 92°
2026-04-26 03:38 9.71275 125.71414 6798 ft 241 kts 92°
2026-04-26 03:39 9.71124 125.73114 6497 ft 241 kts 92°
2026-04-26 03:39 9.70976 125.74788 6238 ft 238 kts 92°
2026-04-26 03:39 9.70830 125.76433 6041 ft 234 kts 92°
2026-04-26 03:39 9.70687 125.78049 5820 ft 222 kts 92°
2026-04-26 03:40 9.70553 125.79562 5603 ft 211 kts 92°
2026-04-26 03:40 9.70425 125.81023 5378 ft 207 kts 92°
2026-04-26 03:40 9.70297 125.82483 5170 ft 209 kts 92°
2026-04-26 03:40 9.70166 125.83955 4821 ft 211 kts 92°
2026-04-26 03:41 9.70035 125.85437 4474 ft 211 kts 92°
2026-04-26 03:41 9.69905 125.86895 4129 ft 208 kts 92°
2026-04-26 03:41 9.69777 125.88342 3774 ft 202 kts 92°
2026-04-26 03:41 9.69652 125.89744 3430 ft 196 kts 92°
2026-04-26 03:42 9.69535 125.91066 3172 ft 187 kts 92°
2026-04-26 03:42 9.69419 125.92386 2917 ft 190 kts 92°
2026-04-26 03:42 9.69300 125.93734 2744 ft 192 kts 92°
2026-04-26 03:42 9.69181 125.95077 2621 ft 192 kts 92°
2026-04-26 03:43 9.69095 125.96401 2479 ft 181 kts 80°
2026-04-26 03:43 9.69644 125.97456 2320 ft 162 kts 43°
2026-04-26 03:43 9.70494 125.98123 2183 ft 151 kts 27°
2026-04-26 03:43 9.71426 125.98506 2105 ft 137 kts 19°
2026-04-26 03:44 9.72308 125.98753 2012 ft 125 kts 13°
2026-04-26 03:44 9.73130 125.98954 1879 ft 120 kts 12°
2026-04-26 03:44 9.73962 125.99142 1866 ft 121 kts 13°
2026-04-26 03:44 9.74766 125.99322 1901 ft 114 kts 14°
2026-04-26 03:45 9.75553 125.99514 1880 ft 118 kts 15°
2026-04-26 03:45 9.76344 125.99717 1855 ft 120 kts 14°
2026-04-26 03:45 9.77170 125.99911 1792 ft 125 kts 14°
2026-04-26 03:45 9.78018 126.00120 1690 ft 128 kts 12°
2026-04-26 03:46 9.78876 126.00285 1486 ft 125 kts 12°
2026-04-26 03:46 9.79746 126.00440 1277 ft 125 kts 11°
2026-04-26 03:46 9.80594 126.00581 1109 ft 122 kts 11°
2026-04-26 03:47 9.82236 126.00885 643 ft 117 kts 14°
2026-04-26 03:47 9.83013 126.01020 486 ft 111 kts 11°
2026-04-26 03:47 9.83758 126.01148 330 ft 110 kts 10°
2026-04-26 03:47 9.84517 126.01276 191 ft 110 kts 13°
2026-04-26 03:48 9.85228 126.01408 34 ft 100 kts 12°
2026-04-26 03:48 9.85816 126.01512 16 ft 63 kts 11°
2026-04-26 03:48 9.85971 126.01543 17 ft 4 kts 130°
2026-04-26 03:48 9.85910 126.01533 16 ft 14 kts 192°
2026-04-26 03:49 9.85791 126.01511 16 ft 20 kts 191°
2026-04-26 03:49 9.85710 126.01531 19 ft 12 kts 95°
2026-04-26 03:49 9.85705 126.01569 22 ft 6 kts 101°
2026-04-26 03:49 9.85704 126.01573 22 ft 0 kts 101°
2026-04-26 03:50 9.85699 126.01578 22 ft 1 kts 162°
2026-04-26 03:50 9.85686 126.01575 22 ft 0 kts 188°